Weather in Kul'chini

Ukraine / Khmelnitsky District     49°45′24″N   26°54′53″E
temp.,
°C
wind,
m/s
gust,
m/s
humid.,
%
clouds,
%
prec.,
mm/h
press.,
hPa
HPBL,
m
15 april, thu
thu1500:00+6nw4791100 0.0 1014310
03:00+5nw4694100 0.3 1014332
06:00+4nw4694100 0.0 1014350
09:00+4nw5692100 0.0 1015346
12:00+4nw5690100 0.1 1015395
15:00+5nw6789100 0.1 1015507
18:00+5wnw6888100 0.0 1015537
21:00+3wnw61090100 0.0 1015469
16 april, fri
fri1600:00+2wnw61195100 0.4 1015461
03:00+1wnw61297100 2.4 1014381
06:00+1w61398100 2.9 1014438
09:00+1w61398100 5.4 1014458
12:00+1w61398100 0.6 1015502
15:00+2w61298100 0.7 1016560
18:00+2w61197100 0.1 1016627
21:00+2w61091100 0.1 1017828
17 april, sat
sat1700:00+1wsw51098100 0.4 1017425
03:00+1wsw41098100 1.9 1018440
06:00+2w4998100 0.3 1019383
09:00+2w3798100 1.3 1020362
12:00+3w2599100 0.5 1021296
15:00+4nw2295100 0.6 1021485
18:00+5nw119196 0.1 1021307
21:00+4ne2196100 0.1 102130
18 april, sun
sun1800:00+3ne229516 0.0 102123
03:00+2n2295100 0.0 102110
06:00+2ne22949 0.0 102011
09:00+5se118450 0.0 1020224
12:00+10sse116599 0.0 1020893
15:00+12n0155100 0.0 10191392
18:00+11ene2357100 0.0 1018445
21:00+9e3471100 0.0 101982
19 april, mon
mon1900:00+8e2474100 0.0 101983
03:00+7e2478100 0.0 1019109
06:00+7e3481100 0.0 101896
09:00+9e3675100 0.0 1018320
12:00+12e6755100 0.1 10171811
15:00+13e565180 0.2 10161825
18:00+11ene686989 0.4 10151217
21:00+8ene71476100 0.5 1014653